LRBS Weather Reports


Display with metric or nautical units.
time (UTC)temp
F
wind
direction
speed
MPH
gust
MPH
rain 1hr
in
rain 24hr
in
rain mn
in
humidity
%
barometer
mb
20260902014813 70 60 8.0 0.0 0.00 0.00 0.00 73 1018.0
20260902013314 70 60 8.0 0.0 0.00 0.00 0.00 73 1018.0
20260902011813 72 40 6.0 0.0 0.00 0.00 0.00 69 1018.0
20260902010314 72 40 6.0 0.0 0.00 0.00 0.00 69 1018.0
20260902004814 70 60 7.0 0.0 0.00 0.00 0.00 73 1018.0
20260902003313 70 60 7.0 0.0 0.00 0.00 0.00 73 1018.0
20260902001815 70 50 6.0 0.0 0.00 0.00 0.00 73 1018.0
20260902000322 70 50 6.0 0.0 0.00 0.00 0.00 73 1018.0
20260901234816 72 40 6.0 0.0 0.00 0.00 0.00 69 1018.0
20260901233314 72 40 6.0 0.0 0.00 0.00 0.00 69 1018.0
20260901231814 72 70 6.0 0.0 0.00 0.00 0.00 65 1018.0
20260901230330 72 70 6.0 0.0 0.00 0.00 0.00 65 1018.0
20260901224814 73 60 7.0 0.0 0.00 0.00 0.00 61 1018.0
20260901223314 73 60 7.0 0.0 0.00 0.00 0.00 61 1018.0
20260901221814 73 50 9.0 0.0 0.00 0.00 0.00 61 1017.0
20260901220314 73 50 9.0 0.0 0.00 0.00 0.00 61 1017.0
20260901214815 75 50 8.0 0.0 0.00 0.00 0.00 57 1017.0
20260901213419 75 50 8.0 0.0 0.00 0.00 0.00 57 1017.0
20260901211814 73 40 3.0 0.0 0.00 0.00 0.00 61 1017.0
20260901210344 73 40 3.0 0.0 0.00 0.00 0.00 61 1017.0
20260901204816 73 1.0 0.0 0.00 0.00 0.00 57 1017.0
20260901203346 73 1.0 0.0 0.00 0.00 0.00 57 1017.0
20260901201815 73 1.0 0.0 0.00 0.00 0.00 61 1017.0
20260901200314 73 1.0 0.0 0.00 0.00 0.00 61 1017.0
20260901194929 75 40 2.0 0.0 0.00 0.00 0.00 54 1017.0
20260901193337 75 40 2.0 0.0 0.00 0.00 0.00 54 1017.0
20260901191837 73 70 2.0 0.0 0.00 0.00 0.00 61 1016.0
20260901190328 73 70 2.0 0.0 0.00 0.00 0.00 61 1016.0
20260901184814 79 30 2.0 0.0 0.00 0.00 0.00 48 1016.0
20260901183314 79 30 2.0 0.0 0.00 0.00 0.00 48 1016.0
20260901181814 79 70 2.0 0.0 0.00 0.00 0.00 48 1016.0
20260901180315 79 70 2.0 0.0 0.00 0.00 0.00 48 1016.0
20260901174813 79 80 2.0 0.0 0.00 0.00 0.00 48 1015.0
20260901173315 79 80 2.0 0.0 0.00 0.00 0.00 48 1015.0
20260901171815 81 50 5.0 0.0 0.00 0.00 0.00 48 1015.0
20260901170314 81 50 5.0 0.0 0.00 0.00 0.00 48 1015.0
20260901164814 84 40 5.0 0.0 0.00 0.00 0.00 40 1015.0
20260901163321 84 40 5.0 0.0 0.00 0.00 0.00 40 1015.0
20260901161814 88 330 3.0 0.0 0.00 0.00 0.00 31 1015.0
20260901160318 88 330 3.0 0.0 0.00 0.00 0.00 31 1015.0
20260901154814 90 300 5.0 0.0 0.00 0.00 0.00 31 1015.0
20260901153314 90 300 5.0 0.0 0.00 0.00 0.00 31 1015.0
20260901151814 90 290 6.0 0.0 0.00 0.00 0.00 29 1015.0
20260901150314 90 290 6.0 0.0 0.00 0.00 0.00 29 1015.0
20260901144852 90 280 7.0 0.0 0.00 0.00 0.00 31 1015.0
20260901143314 90 280 7.0 0.0 0.00 0.00 0.00 31 1015.0
20260901141829 90 250 6.0 0.0 0.00 0.00 0.00 29 1015.0
20260901140429 90 250 6.0 0.0 0.00 0.00 0.00 29 1015.0
20260901134814 90 280 8.0 0.0 0.00 0.00 0.00 29 1015.0
20260901133315 90 280 8.0 0.0 0.00 0.00 0.00 29 1015.0
20260901131822 90 220 6.0 0.0 0.00 0.00 0.00 27 1015.0
20260901130314 90 220 6.0 0.0 0.00 0.00 0.00 27 1015.0
20260901124820 90 2.0 0.0 0.00 0.00 0.00 27 1016.0
20260901123315 90 2.0 0.0 0.00 0.00 0.00 27 1016.0
20260901121813 90 3.0 0.0 0.00 0.00 0.00 27 1016.0
20260901120314 90 3.0 0.0 0.00 0.00 0.00 27 1016.0
20260901114814 88 3.0 0.0 0.00 0.00 0.00 29 1016.0
20260901113314 88 3.0 0.0 0.00 0.00 0.00 29 1016.0
20260901111814 88 3.0 0.0 0.00 0.00 0.00 27 1016.0
20260901110314 88 3.0 0.0 0.00 0.00 0.00 27 1016.0
20260901104814 88 3.0 0.0 0.00 0.00 0.00 27 1016.0
20260901103314 88 3.0 0.0 0.00 0.00 0.00 27 1016.0
20260901101912 84 3.0 0.0 0.00 0.00 0.00 29 1016.0
20260901100316 84 3.0 0.0 0.00 0.00 0.00 29 1016.0
20260901094815 86 60 5.0 0.0 0.00 0.00 0.00 27 1016.0
20260901093314 86 60 5.0 0.0 0.00 0.00 0.00 27 1016.0
20260901091814 82 3.0 0.0 0.00 0.00 0.00 32 1017.0
20260901090314 82 3.0 0.0 0.00 0.00 0.00 32 1017.0
20260901084814 81 5.0 0.0 0.00 0.00 0.00 32 1017.0
20260901083323 81 5.0 0.0 0.00 0.00 0.00 32 1017.0
20260901081814 79 30 6.0 0.0 0.00 0.00 0.00 45 1017.0
20260901080316 79 30 6.0 0.0 0.00 0.00 0.00 45 1017.0
20260901074820 77 40 5.0 0.0 0.00 0.00 0.00 51 1017.0
20260901073314 77 40 5.0 0.0 0.00 0.00 0.00 51 1017.0
20260901071813 75 10 5.0 0.0 0.00 0.00 0.00 54 1017.0
20260901070313 75 10 5.0 0.0 0.00 0.00 0.00 54 1017.0
20260901064814 72 20 5.0 0.0 0.00 0.00 0.00 57 1017.0
20260901063315 72 20 5.0 0.0 0.00 0.00 0.00 57 1017.0
20260901061814 68 360 3.0 0.0 0.00 0.00 0.00 60 1017.0
20260901060314 68 360 3.0 0.0 0.00 0.00 0.00 60 1017.0
20260901054814 66 2.0 0.0 0.00 0.00 0.00 64 1017.0
20260901053314 66 2.0 0.0 0.00 0.00 0.00 64 1017.0
20260901051814 64 1.0 0.0 0.00 0.00 0.00 68 1016.0
20260901050314 64 1.0 0.0 0.00 0.00 0.00 68 1016.0
20260901044834 63 20 3.0 0.0 0.00 0.00 0.00 73 1016.0
20260901043314 63 20 3.0 0.0 0.00 0.00 0.00 73 1016.0
20260901041811 61 20 5.0 0.0 0.00 0.00 0.00 72 1016.0
20260901040313 61 20 5.0 0.0 0.00 0.00 0.00 72 1016.0
20260901034814 61 50 3.0 0.0 0.00 0.00 0.00 72 1016.0
20260901033314 61 50 3.0 0.0 0.00 0.00 0.00 72 1016.0
20260901031807 61 100 3.0 0.0 0.00 0.00 0.00 72 1016.0
20260901030313 61 100 3.0 0.0 0.00 0.00 0.00 72 1016.0
20260901024814 61 100 2.0 0.0 0.00 0.00 0.00 72 1016.0
20260901023314 61 100 2.0 0.0 0.00 0.00 0.00 72 1016.0
20260901021811 63 80 2.0 0.0 0.00 0.00 0.00 68 1016.0
20260901020310 63 80 2.0 0.0 0.00 0.00 0.00 68 1016.0